Content
SEND FEEDBACK

Daily
Averages
Monthly
Summary
Thailand

KHON KAEN, THAILAND


Home > Asia > Thailand
Elevation: 515 feet     Latitude: 16 20N     Longitude: 102 51E

WEATHER
 
SELECT A DAY
Number of Records: 65,376;   Date Range: 12/16/03 - 7/7/14
 
SHARE

PRINT THIS DATA

[ ← Previous Day ]
WEATHER ALMANAC - JANUARY 3, 2013
[ Next Day → ]
[ °C ]   °F
Weather ElementAverageHighLow
Temperature79.1 °F89.6 °F (3:00 pm)64.4 °F (4:00 am)
Dewpoint63.1 °F64.4 °F (8:00 am)60 °F (7:00 am)
Humidity58.9 %94 % (4:00 am)30 % (1:00 pm)
Barometer29.95 in30.04 in (9:00 am)29.89 in (3:00 pm)
Wind Speed5.4 mph8.1 mph (1:00 pm)
Weather ElementAverage
Visibility5.5 mi
Wind DirectionENE (68.9 °)

Weather ElementTotal
Precipitation---
Cooling Degree Days12 (Base 65)
Growing Degree Days27 (Base 50)
Averaged from 19 records on January 3, 2013
WEATHER CONDITIONS BREAKOUT
WIND DIRECTION BREAKOUT
WEATHER BY HOUR - JANUARY 3, 2013
[ °C ]   °F
Local TimeTemperatureDewpointHumidityBarometerVisibilityWind DirectionWind SpeedGust SpeedPrecipitationEventsConditions
4:00 AM64.4 °F62.6 °F94 %29.92 in5.0 miCalm
6:00 AM66.2 °F62.6 °F88 %29.95 in5.6 miNE (50°)4.6 mph
7:00 AM65.0 °F60.0 °F78 %29.98 in4.0 miENE (60°)2.3 mphMist
7:00 AM66.2 °F62.6 °F88 %29.98 in4.3 miENE (70°)2.3 mph
8:00 AM69.8 °F64.4 °F83 %30.01 in4.3 miNE (50°)4.6 mph
9:00 AM73.4 °F64.4 °F73 %30.04 inEast (90°)6.9 mphClear
10:00 AM78.8 °F64.4 °F61 %30.04 inEast (80°)5.8 mphClear
11:00 AM82.4 °F64.4 °F54 %30.01 inENE (70°)5.8 mphClear
12:00 PM86.0 °F64.4 °F48 %29.98 inEast (90°)6.9 mphClear
1:00 PM86.0 °F64.4 °F48 %29.95 inENE (70°)5.8 mphClear
1:00 PM87.0 °F60.0 °F30 %29.92 in7.0 miEast (90°)8.1 mphClear
2:00 PM87.8 °F62.6 °F43 %29.92 in6.2 miEast (100°)5.8 mphPartly Cloudy
3:00 PM89.6 °F62.6 °F40 %29.89 in6.2 miENE (70°)6.9 mphPartly Cloudy
4:00 PM87.8 °F62.6 °F43 %29.89 in6.2 miENE (70°)6.9 mphPartly Cloudy
5:00 PM86.0 °F64.4 °F48 %29.89 inEast (100°)4.6 mphClear
6:00 PM84.2 °F64.4 °F51 %29.89 inENE (60°)5.8 mphClear
7:00 PM82.0 °F61.0 °F38 %29.91 in6.0 miENE (60°)6.9 mphClear
7:00 PM82.4 °F62.6 °F51 %29.92 inENE (60°)6.9 mphClear
8:00 PM78.8 °F64.4 °F61 %29.95 inENE (70°)5.8 mphClear
Hourly data recorded from VTUK, located miles away from Khon Kaen, Thailand







STORIES FROM OUR PARTNERS